Location: Beccas
(43.4309°N, 0.1528°E)
Time: 00:05:00
(UTC+00:00)

Cosmos 2298 Rocket - Pass Details

Date: 15 October 2021
Orbit: 776 x 783 km, 74.0° (Epoch: 05 December)

Event Time Altitude Azimuth Distance (km) Brightness Sun altitude
Rises 17:46:35 0° 182° (S) 3,247 7.4 -6.3°
Reaches altitude 10° 17:49:01 10° 176° (S) 2,322 6.5 -6.7°
Maximum altitude 17:54:04 47° 104° (ESE) 1,021 4.3 -7.7°
Drops below altitude 10° 17:59:07 10° 31° (NNE) 2,334 6.2 -8.6°
Sets 18:01:35 0° 26° (NNE) 3,266 7.0 -9.0°
